Temp
15 15 15 16 15 15 15 15 15 15 15 16 16 17 17 18 18 18 19 19 18 18 18 19 18 18 19 21 19 18 18 18 19 19 17 19 20 20 20 19 20 19 18 17 16 15 15
15 15 15 15 15 15 15 15 15 15 15 16 16 17 17 17 18 18 19 18 18 18 18 18 18 18 19 20 18 18 18 18 18 17 17 19 19 19 19 18 19 18 18 16 16 15 15
14 14 14 15 15 15 15 15 15 15 15 15 16 16 17 17 18 18 18 18 18 18 18 18 19 19 20 19 18 18 18 17 17 17 18 16 17 19 19 18 17 17 17 17 16 16 15
14 14 14 14 14 14 14 15 15 15 15 15 16 16 17 17 18 18 18 18 18 18 18 18 19 19 19 18 18 18 18 17 17 17 16 15 16 18 18 17 18 18 18 18 18 16 14
14 14 14 14 14 14 14 14 14 15 15 15 16 16 17 17 18 18 18 18 18 18 19 19 19 20 20 18 18 18 17 17 17 16 16 16 17 17 17 19 19 18 19 18 18 16 15
14 14 14 14 14 14 14 14 14 14 15 15 15 15 16 17 18 18 19 18 19 19 19 20 19 21 20 19 17 17 17 17 17 18 19 19 18 20 19 20 20 18 18 18 17 17 15
14 14 14 14 14 14 14 13 13 14 14 15 15 15 16 16 17 18 19 19 21 21 18 17 17 18 18 17 17 18 17 17 18 19 19 17 20 19 18 17 17 17 16 17 18 16 15
15 13 13 14 15 14 14 14 14 14 14 14 15 15 16 17 17 18 18 14 12 14 19 16 16 17 16 16 19 19 17 19 19 19 18 19 19 17 16 16 16 16 17 18 17 15 15
14 13 13 13 14 14 13 13 14 14 14 14 15 15 16 16 17 17 13 11 12 12 20 19 17 18 17 17 18 18 18 17 18 18 17 19 18 16 16 17 17 18 17 17 16 16 16
15 14 14 13 13 13 13 13 13 13 13 13 15 15 16 16 16 14 12 12 12 12 22 20 20 18 18 17 18 16 15 17 18 17 17 18 17 16 17 17 16 17 15 15 15 15 17
15 14 14 13 13 12 14 14 13 13 13 14 15 15 15 16 16 14 13 12 12 13 20 19 19 18 17 19 17 18 15 18 17 16 17 18 16 16 17 16 15 17 15 14 14 15 14
14 14 13 13 13 13 13 14 14 14 14 15 15 15 15 15 15 13 13 12 12 21 18 18 18 17 19 17 17 17 17 17 16 16 16 16 15 15 16 15 15 15 15 14 14 14 15
13 13 12 13 13 13 13 13 14 14 15 15 15 15 15 15 14 13 13 13 21 21 18 18 17 17 16 17 18 16 16 16 17 17 17 17 17 16 15 16 15 17 17 17 17 17 17
14 14 13 13 13 12 13 13 13 14 14 15 15 15 15 14 14 13 12 19 20 17 17 16 16 16 17 16 16 16 17 17 16 16 16 16 17 16 15 16 16 15 16 16 15 16 17
14 14 14 13 13 13 13 12 11 11 13 14 14 14 15 14 13 13 17 19 18 17 16 16 17 18 18 16 16 17 16 16 15 15 16 16 17 15 14 14 15 16 16 14 14 14 13
14 14 13 13 13 13 12 11 10 12 13 14 14 14 14 14 14 13 20 16 16 15 15 16 17 16 17 17 17 17 16 15 15 14 14 15 15 14 15 14 13 15 14 15 15 15 15
14 14 13 13 13 12 10 10 10 12 13 14 13 17 15 15 14 18 18 16 16 15 15 16 16 16 16 16 15 16 16 15 15 15 15 15 14 16 14 15 16 14 14 14 14 14 15
14 14 13 12 12 10 10 10 11 12 13 13 13 19 16 15 19 15 17 15 14 15 15 15 15 15 16 15 15 15 16 16 15 15 15 13 14 14 16 14 12 14 15 15 15 14 14
13 13 13 12 12 11 10 10 11 12 12 12 15 15 16 15 19 17 14 15 15 15 15 15 15 15 15 15 15 15 15 15 14 14 15 13 14 13 16 14 12 13 13 14 13 13 13
13 13 12 12 12 12 11 10 11 12 12 12 14 18 16 13 12 16 15 15 15 13 14 14 15 14 14 15 15 15 15 15 13 14 13 13 13 14 14 15 14 13 14 14 14 13 14
12 12 12 12 12 12 11 11 12 12 12 12 12 13 11 16 15 14 14 13 14 15 14 14 14 14 15 15 14 14 14 14 14 12 12 12 11 12 13 13 13 13 13 13 12 12 13
12 12 12 11 11 11 11 11 12 12 12 12 14 14 10 11 11 13 12 14 14 14 14 14 14 14 14 14 15 15 15 15 14 11 12 10 11 10 10 12 12 11 12 12 12 12 13
11 11 11 11 11 11 11 11 11 12 12 11 9 10 14 10 11 13 14 14 13 13 14 14 14 14 13 14 15 15 14 14 14 13 11 10 10 10 11 11 11 12 14 14 13 12 12
11 11 11 11 10 10 11 11 11 12 11 12 11 11 14 14 12 13 12 12 13 13 13 14 13 13 13 12 12 12 12 11 11 11 12 11 10 10 10 11 12 16 12 12 12 13 12
11 11 11 11 10 10 10 11 11 11 10 11 11 12 13 14 13 12 12 12 12 12 12 12 13 13 11 12 12 12 14 12 9 7 8 9 11 10 11 11 14 15 10 11 11 13 13
10 10 10 10 11 11 10 10 10 10 10 10 10 11 11 13 13 14 13 12 13 13 12 11 10 9 11 12 11 11 13 13 13 9 7 7 10 9 9 10 13 16 9 8 8 12 8
10 9 9 9 9 9 10 10 10 10 10 10 10 10 10 10 12 13 12 13 12 12 12 12 11 10 10 11 10 10 12 12 12 12 9 8 7 8 10 10 12 13 8 7 11 14 7
9 9 8 10 8 9 8 8 9 9 9 9 9 10 10 9 10 10 11 12 10 12 12 11 11 10 9 9 9 11 10 12 10 12 11 11 8 9 9 9 10 8 7 11 10 7 5
8 8 8 7 8 7 8 8 8 8 9 9 8 9 9 8 10 9 10 11 11 12 12 10 12 10 9 9 8 9 9 8 10 11 8 10 12 12 11 13 9 8 9 5 3 4 2
Height
882 881 880 878 877 876 875 872 870 866 863 859 855 851 847 842 838 834 830 828 826 825 825 825 826 827 828 829 834 833 829 826 824 822 820 819 818 820 824 826 826 828 836 839 841 844 844
884 883 882 881 879 878 876 874 871 867 864 860 856 851 846 842 838 835 831 829 828 827 827 827 828 829 829 834 836 833 830 828 826 825 825 823 823 823 826 830 829 835 836 842 843 844 846
886 885 884 883 881 879 877 875 872 868 865 861 857 852 847 842 838 834 831 830 829 829 829 829 830 830 831 839 836 834 832 830 830 829 828 828 828 825 827 832 837 837 840 841 843 843 845
887 886 886 884 883 881 878 876 872 869 865 861 857 852 847 843 839 834 831 831 831 831 831 831 831 831 837 838 837 836 834 833 831 830 830 830 829 830 831 836 836 836 836 835 836 842 847
888 887 886 885 883 881 879 876 873 869 865 861 857 852 847 843 839 834 832 832 833 833 833 832 833 831 839 838 838 837 835 835 833 832 831 831 832 834 836 833 835 837 832 836 835 838 844
889 888 887 886 884 882 879 876 873 870 866 862 857 853 848 844 840 835 834 834 834 834 834 834 834 836 840 843 840 838 837 835 834 833 832 831 832 831 833 828 834 837 836 836 837 837 843
890 889 888 886 885 882 880 876 873 870 866 862 858 854 849 845 840 836 834 834 838 837 839 846 848 846 845 844 841 840 838 837 835 833 835 837 833 838 841 842 843 844 843 840 832 837 841
890 889 888 886 884 882 879 876 872 869 865 861 857 853 849 845 842 839 835 840 846 847 846 848 847 846 846 846 843 841 839 838 836 840 840 836 839 844 846 848 847 844 840 832 834 840 841
890 889 887 885 883 881 878 875 871 867 863 859 856 852 848 845 842 841 842 847 847 847 843 848 848 847 848 847 847 845 843 842 842 843 845 840 845 847 847 844 842 834 840 838 843 838 835
889 888 887 884 882 879 876 873 870 866 862 859 856 853 849 844 846 845 847 848 847 848 843 853 848 849 848 846 848 847 846 846 844 847 848 846 847 849 846 846 848 841 845 846 844 841 829
888 887 886 883 880 877 875 872 869 866 862 859 856 853 849 845 847 848 851 848 847 848 864 856 851 849 848 848 852 846 848 843 848 850 849 848 849 849 847 850 852 844 846 845 845 841 842
887 885 884 882 879 876 873 870 867 864 861 858 855 852 850 849 849 850 848 848 849 848 873 860 856 857 850 852 852 849 847 847 850 850 849 849 852 851 849 851 851 846 842 843 844 840 836
884 883 882 880 878 875 872 869 866 863 860 857 854 852 850 850 852 849 848 849 847 855 864 864 864 862 863 860 854 857 858 856 856 852 852 848 848 850 852 846 848 841 835 833 831 828 820
881 881 880 878 876 874 871 868 866 863 860 857 854 852 852 852 850 849 849 844 857 868 866 867 867 865 862 866 862 858 856 855 861 860 858 858 851 850 852 851 851 850 847 847 851 836 827
879 879 878 876 874 872 870 867 865 863 859 856 853 853 853 852 849 848 847 854 864 869 871 869 866 863 862 864 865 857 861 862 865 864 861 859 850 852 854 853 853 847 848 856 851 852 852
877 876 875 874 872 870 867 866 864 862 859 855 854 853 853 850 847 848 844 868 870 871 871 870 866 870 865 865 862 862 864 866 866 867 866 865 863 854 852 855 855 850 853 849 850 845 838
874 873 872 871 870 868 866 865 863 861 857 854 853 851 852 848 848 846 857 867 870 871 870 869 869 869 869 868 869 865 865 866 866 866 866 866 868 851 854 849 847 852 850 853 853 850 842
870 870 869 869 868 867 866 865 863 860 856 854 852 850 850 847 848 863 862 868 871 871 871 871 871 871 870 871 870 868 867 864 865 865 865 870 869 863 848 851 857 853 847 845 847 848 848
867 866 866 866 866 865 864 864 862 860 857 855 855 855 851 848 851 861 869 870 870 869 871 870 870 872 873 872 871 869 867 865 867 868 865 870 867 863 839 851 857 854 853 850 851 852 846
862 862 863 863 864 863 863 861 861 860 858 857 857 853 855 858 869 863 867 870 870 872 871 871 870 872 872 871 870 869 867 864 866 865 866 867 867 863 857 848 851 849 846 847 847 846 831
858 858 860 860 860 861 861 860 859 859 858 859 860 865 869 861 866 869 870 872 871 870 871 871 871 870 869 869 868 867 867 864 862 867 868 870 868 862 855 851 849 842 835 839 842 832 834
853 854 856 858 858 859 859 859 858 857 856 857 859 862 872 872 873 868 872 870 869 869 868 867 869 867 868 869 861 860 861 861 860 867 866 873 863 867 861 847 847 842 831 829 829 822 819
848 851 852 854 856 856 857 857 857 856 856 857 861 863 862 877 874 870 866 869 869 870 865 864 864 865 866 861 859 859 858 857 856 859 866 869 868 866 853 850 851 835 810 810 812 814 811
844 846 848 850 854 854 854 854 856 854 855 855 856 859 860 864 870 866 868 868 868 867 865 864 866 866 862 863 863 858 856 857 857 857 858 859 865 866 855 844 832 795 808 810 808 801 801
840 841 844 845 848 851 852 853 853 853 854 854 854 857 858 860 862 866 866 865 864 865 866 863 859 860 862 862 861 856 841 849 857 866 864 861 858 858 849 835 807 794 810 809 807 791 791
835 837 839 843 842 845 848 849 851 853 853 854 853 854 856 857 856 856 859 862 860 859 860 860 861 862 863 861 862 857 847 843 839 854 866 866 858 859 854 845 811 784 810 816 817 792 801
831 834 835 839 840 840 844 845 845 848 851 853 852 852 854 857 854 853 855 854 857 858 856 857 859 861 862 858 863 857 846 843 840 836 853 862 865 855 840 834 808 796 813 819 803 782 803
827 829 831 832 837 836 839 842 841 844 844 848 849 851 852 852 850 850 851 852 857 855 853 858 861 861 861 862 858 849 847 839 845 829 833 835 847 847 844 841 824 813 820 806 800 803 809
821 825 827 830 832 836 833 838 839 839 841 841 846 847 849 850 847 845 845 845 847 850 851 852 847 854 853 855 856 853 851 851 838 826 838 832 821 816 820 798 801 809 801 812 815 813 815
Wind_Speed
12 12 13 14 14 16 18 20 21 23 25 27 29 29 28 21 20 22 12 9 8 7 8 10 11 11 5 4 5 9 11 10 5 5 8 3 8 3 5 4 5 8 5 4 6 5 5
12 12 13 14 15 16 18 20 22 23 25 27 29 31 30 23 20 21 10 8 7 8 9 8 8 4 1 4 4 10 9 8 9 7 9 9 4 4 7 4 3 3 6 9 6 5 5
12 13 13 13 15 16 18 19 22 24 26 27 28 30 32 24 23 24 6 5 7 7 7 7 8 8 11 5 4 9 8 8 10 7 4 5 3 1 2 5 3 7 6 4 7 5 2
12 12 12 13 15 16 18 20 22 25 27 26 27 30 32 26 24 27 4 5 5 6 5 4 3 3 4 3 4 9 10 5 7 7 6 4 6 7 3 5 3 1 2 4 6 6 3
10 11 12 14 16 18 19 21 23 25 26 27 27 29 31 28 24 26 6 7 5 6 5 2 3 1 3 3 3 9 9 4 3 3 6 3 3 4 2 2 3 2 4 5 3 7 3
9 11 12 14 16 18 20 22 23 24 26 26 26 27 29 28 21 22 6 10 8 4 4 3 4 2 3 5 5 7 8 4 2 2 1 3 2 1 2 3 3 5 6 4 7 4 8
9 10 12 13 15 17 19 22 25 25 26 25 24 25 27 27 16 21 5 1 0 2 12 4 1 2 3 8 3 7 8 3 2 3 3 4 2 6 5 2 2 3 6 8 8 2 5
9 13 14 14 15 18 19 21 23 25 24 23 23 23 25 24 11 21 6 6 1 1 6 2 1 1 2 5 3 11 9 3 4 4 4 1 4 3 1 0 3 5 9 6 5 2 4
10 14 15 15 15 18 20 21 23 25 23 22 21 22 23 19 7 12 17 6 3 2 2 3 2 2 3 4 3 8 8 2 5 4 5 2 3 2 2 3 7 9 5 5 6 8 8
13 15 16 17 16 17 19 20 22 24 24 20 19 21 21 12 4 7 5 7 1 1 2 8 4 3 2 2 2 3 5 3 2 4 2 2 3 3 4 3 5 9 2 5 11 7 6
13 16 16 18 17 19 21 20 21 22 22 20 19 18 16 10 3 4 7 3 2 1 1 6 3 4 3 4 5 5 4 1 3 3 3 3 4 4 2 4 2 5 6 8 4 6 6
15 16 16 18 19 20 21 20 20 18 19 20 17 16 11 5 5 6 6 3 0 2 1 2 4 7 3 5 4 7 4 5 1 0 1 1 0 1 3 2 2 9 7 4 2 2 3
14 13 16 18 19 19 19 19 18 17 18 18 17 12 7 6 3 8 2 2 1 3 1 5 3 5 1 6 4 8 5 8 6 4 7 5 0 1 1 4 3 10 8 3 2 2 3
15 16 17 18 17 17 17 17 15 15 17 16 14 5 3 7 9 7 1 2 4 0 1 1 2 2 2 7 2 7 2 3 5 3 2 5 1 4 3 2 4 4 4 3 5 5 10
14 16 17 16 15 15 16 15 15 16 16 17 9 2 2 9 11 2 2 5 2 0 2 5 1 2 1 2 4 5 4 3 3 6 6 6 3 1 1 1 3 2 1 2 4 2 4
15 16 15 15 15 14 13 13 14 18 15 15 6 1 3 16 5 0 2 3 2 0 1 1 3 2 3 5 5 5 3 2 1 2 3 1 6 1 1 2 1 2 2 2 1 5 6
16 16 14 14 13 10 10 11 12 14 15 9 2 1 5 13 2 2 4 2 2 1 1 1 0 1 1 3 2 3 2 1 1 1 1 0 2 1 3 3 1 1 2 2 2 3 4
17 15 13 12 11 8 7 9 11 13 15 5 1 1 6 4 2 2 2 1 1 1 1 0 0 1 1 2 3 2 2 3 3 1 2 1 2 5 9 2 1 3 3 4 3 2 4
17 15 13 12 10 9 6 7 7 10 12 4 2 2 6 4 2 2 2 2 1 2 1 1 1 1 0 1 3 3 2 1 2 2 1 3 2 6 3 3 2 3 2 3 3 2 10
16 15 14 12 10 9 7 5 4 6 8 2 0 0 3 5 2 3 2 1 1 0 1 1 1 1 1 3 3 3 3 1 2 3 0 4 3 8 9 13 10 16 12 8 10 9 14
17 15 14 12 11 10 7 6 3 2 5 1 3 2 1 2 3 3 1 1 1 1 1 1 2 5 4 3 3 4 3 3 3 1 2 2 5 8 14 17 18 21 22 17 17 23 12
16 15 14 14 13 11 9 8 5 3 2 4 1 2 1 2 1 3 1 3 3 1 3 3 4 3 5 5 7 12 9 8 8 3 4 2 4 2 9 16 15 20 17 17 17 21 20
17 16 15 15 14 12 11 10 7 5 2 3 3 3 1 1 1 1 2 3 4 2 4 4 5 3 7 13 11 12 13 12 12 6 6 4 3 1 5 1 8 13 13 8 4 8 6
18 17 16 15 16 14 13 11 10 9 6 4 4 4 2 3 3 3 5 5 6 6 4 2 4 4 2 2 5 9 13 12 11 13 12 5 4 2 5 7 5 3 3 4 11 13 15
20 18 18 17 16 15 13 13 13 11 9 6 6 4 2 2 3 4 7 6 4 5 6 7 9 3 1 2 3 5 3 3 2 3 3 10 6 4 4 4 13 11 2 3 3 9 6
20 20 19 19 17 16 15 13 14 14 12 12 10 7 3 3 6 4 3 5 3 4 3 5 1 1 1 1 2 3 3 2 3 2 2 4 9 5 3 6 8 4 4 4 2 9 4
21 21 20 19 18 16 16 15 15 16 17 14 7 13 5 3 4 5 5 4 3 2 3 1 1 1 1 3 3 4 4 1 4 5 5 4 3 10 12 7 9 6 7 4 3 8 4
22 22 21 19 17 17 15 15 16 17 18 18 8 13 9 3 2 7 6 6 2 3 5 2 1 2 3 4 3 3 3 3 3 3 5 8 7 6 5 5 10 6 6 5 4 2 2
22 21 19 18 17 17 16 15 15 17 19 20 7 14 14 3 3 5 10 17 13 15 6 6 4 3 4 3 2 2 4 3 5 6 2 5 8 4 9 8 1 10 5 3 4 5 4
Wind_Direction
66 63 63 60 56 48 40 33 28 23 20 17 15 13 11 7 6 8 7 21 32 57 89 116 127 130 119 76 50 343 352 1 4 29 47 48 56 88 99 95 92 105 123 88 126 140 124
65 64 62 57 49 41 34 27 22 19 15 13 11 10 9 6 6 7 8 31 54 79 98 116 130 129 120 77 342 355 2 19 31 36 39 37 66 88 90 70 22 81 122 124 142 146 150
65 63 56 47 39 32 25 19 15 12 8 8 9 8 7 8 5 2 15 54 72 88 92 97 112 95 68 71 359 8 13 26 30 34 56 44 78 34 113 110 97 131 135 163 185 188 174
63 55 45 37 29 23 17 11 8 6 7 6 5 5 5 7 4 0 56 75 82 81 81 93 82 72 71 0 9 10 14 15 29 43 77 69 90 85 29 123 98 168 216 250 155 183 155
55 42 31 24 17 13 9 5 2 2 1 1 1 2 2 5 5 3 94 63 98 75 62 79 40 53 64 355 18 358 6 357 352 41 50 68 56 66 141 194 165 176 305 274 259 207 168
41 29 20 15 13 7 2 359 358 357 357 357 357 359 360 1 4 7 112 81 81 63 29 39 44 148 53 348 326 342 351 8 19 312 196 39 45 95 48 343 358 327 308 278 279 178 218
26 13 4 2 2 356 352 350 347 349 348 350 353 355 357 358 7 10 128 119 259 80 41 55 22 52 349 331 353 359 351 323 347 48 14 27 48 21 4 3 4 306 288 286 286 258 269
11 0 356 354 348 345 344 342 339 344 347 347 350 353 356 357 8 22 80 68 63 90 91 66 41 1 343 348 324 17 3 12 24 35 333 192 53 11 346 195 298 298 308 314 282 259 266
348 348 344 343 339 335 333 335 339 341 344 345 349 351 354 356 14 24 58 67 103 105 81 59 43 19 341 352 45 351 1 353 33 40 20 28 44 344 315 308 324 332 300 335 318 313 253
338 335 334 335 339 333 330 335 338 340 344 347 349 349 352 0 54 15 52 5 133 109 132 6 7 38 317 340 84 323 9 350 51 30 2 9 359 348 335 331 334 325 12 316 310 310 318
321 323 323 323 329 330 335 334 336 338 340 346 348 349 356 29 34 46 332 339 155 261 103 348 351 327 355 52 315 35 14 13 48 19 296 25 351 354 339 0 300 316 318 301 300 288 305
312 315 313 317 322 327 330 332 334 336 339 345 350 351 0 25 51 6 349 134 196 187 324 23 334 356 1 24 19 319 15 49 60 142 15 356 265 255 339 305 253 300 287 271 205 261 253
300 311 317 325 323 325 328 330 334 341 343 349 349 355 34 44 4 342 19 222 150 53 356 3 343 356 5 354 9 15 18 33 24 354 7 329 18 63 339 303 200 342 333 326 283 294 309
307 318 321 320 320 323 326 329 335 340 343 350 348 18 68 32 345 341 155 208 76 65 353 10 321 309 46 356 44 355 20 51 60 7 334 353 330 0 14 29 329 6 350 16 321 325 304
299 310 314 315 316 319 323 329 338 337 340 344 355 13 28 345 339 350 249 52 53 121 330 329 308 7 43 18 342 343 35 23 13 0 13 340 280 335 38 337 302 58 0 11 271 251 271
295 306 310 309 310 316 327 335 337 343 341 342 352 6 349 345 351 156 67 104 127 199 323 302 4 346 328 340 338 3 5 57 57 4 305 85 290 160 278 190 101 312 121 256 207 308 300
291 300 302 303 308 319 331 336 342 349 344 345 24 196 340 347 33 47 73 89 154 156 238 356 228 275 287 315 322 329 340 119 217 183 5 172 258 241 270 208 278 204 199 187 281 260 289
285 291 291 295 301 309 330 331 340 346 351 1 67 185 342 6 47 42 80 111 148 141 36 119 130 266 277 324 299 293 282 249 194 233 329 46 308 282 285 359 355 275 255 220 267 251 251
278 280 278 277 282 295 315 316 335 353 6 357 34 326 345 2 92 97 118 118 138 166 180 169 202 244 168 270 292 231 255 338 170 249 353 166 228 299 275 158 112 244 200 248 301 326 263
269 268 265 263 267 270 275 290 320 354 4 49 157 127 31 54 28 91 134 128 159 59 195 192 153 145 199 245 222 291 265 288 177 223 318 179 232 240 274 296 301 283 265 246 249 272 261
258 256 257 255 252 253 253 248 261 343 4 50 10 92 44 82 68 89 88 127 162 228 215 208 204 226 207 255 244 231 242 278 217 166 157 217 244 239 258 274 272 269 270 260 243 244 256
250 248 247 250 247 246 242 240 226 190 63 91 114 153 95 103 151 150 189 188 190 235 210 204 225 189 210 236 239 283 280 285 263 140 174 190 263 243 279 261 269 269 275 259 250 260 251
242 243 244 246 246 241 236 233 233 195 151 114 128 102 264 63 126 203 191 176 195 197 214 240 219 237 244 250 261 275 271 264 255 251 207 198 225 290 270 200 298 277 262 216 198 229 234
237 238 238 242 246 240 228 222 223 209 182 143 153 130 159 157 206 203 192 205 215 222 262 254 214 227 274 17 289 261 255 261 254 249 234 219 183 201 279 301 239 327 154 278 250 257 232
237 236 238 234 234 235 230 223 215 209 193 181 154 147 149 186 214 211 217 217 242 247 240 247 242 249 4 331 282 299 236 236 151 67 213 222 189 239 259 250 290 281 169 182 224 283 259
237 236 234 234 226 229 230 223 220 216 214 198 192 167 138 151 225 211 189 206 237 235 244 231 183 274 177 236 222 251 255 307 240 197 65 178 220 209 196 254 273 326 157 148 151 287 148
234 234 227 228 225 225 228 221 214 212 213 212 209 193 140 174 229 172 209 226 180 217 263 192 193 187 179 194 222 233 241 225 228 222 181 150 189 220 233 255 280 279 146 153 257 328 148
232 230 228 225 230 220 223 221 210 210 205 206 218 207 188 194 225 188 199 207 193 214 256 153 298 193 172 200 208 240 247 226 257 224 194 189 180 197 219 226 271 126 120 221 328 289 260
228 230 230 224 221 223 209 216 214 207 203 198 208 206 211 202 245 216 239 250 256 269 249 188 252 217 173 213 198 238 249 211 242 265 123 260 202 238 214 238 129 200 294 20 360 332 357